LBT44D DTTA-DTTJ

Flight info

Callsign LBT44D
Flight time 0h 39m
Altitude 23000
Route GIBLI2A GIBLI A411 MON UA411 ELJEM A411 SFX UA411 JBA
Aircraft A320/M-SDE3FGHIRWY/LB1

Departure

Time 2026-05-06 14:03
Airport Tunis Carthage International Airport (DTTA)

Arrival

Time 2026-05-06 14:43
Airport Djerba Zarzis International Airport (DTTJ)
Time Latitude Longitude Altitude Speed Heading
2026-05-06 13:40 36.84230 10.21816 20 ft 0 kts 281°
2026-05-06 13:56 36.84229 10.21824 20 ft 2 kts 281°
2026-05-06 13:56 36.84226 10.21844 22 ft 2 kts 281°
2026-05-06 13:57 36.84222 10.21865 22 ft 2 kts 281°
2026-05-06 13:57 36.84221 10.21886 23 ft 2 kts 258°
2026-05-06 13:57 36.84227 10.21906 22 ft 2 kts 205°
2026-05-06 13:57 36.84229 10.21908 21 ft 0 kts 196°
2026-05-06 13:59 36.84227 10.21907 22 ft 3 kts 194°
2026-05-06 14:00 36.84160 10.21889 19 ft 14 kts 192°
2026-05-06 14:00 36.84067 10.21865 20 ft 13 kts 192°
2026-05-06 14:00 36.83978 10.21842 18 ft 13 kts 190°
2026-05-06 14:00 36.83907 10.21881 17 ft 12 kts 119°
2026-05-06 14:01 36.83887 10.21972 17 ft 10 kts 102°
2026-05-06 14:01 36.83872 10.22056 17 ft 9 kts 102°
2026-05-06 14:01 36.83864 10.22144 17 ft 14 kts 89°
2026-05-06 14:01 36.83914 10.22308 17 ft 26 kts 50°
2026-05-06 14:02 36.84074 10.22419 17 ft 12 kts 11°
2026-05-06 14:02 36.84099 10.22425 17 ft 2 kts 12°
2026-05-06 14:02 36.84241 10.22464 19 ft 56 kts 12°
2026-05-06 14:02 36.84857 10.22628 26 ft 121 kts 12°
2026-05-06 14:03 36.85831 10.22893 141 ft 159 kts 11°
2026-05-06 14:03 36.86934 10.23201 820 ft 165 kts 16°
2026-05-06 14:03 36.88103 10.23516 1389 ft 178 kts 15°
2026-05-06 14:03 36.89353 10.23812 1860 ft 195 kts 16°
2026-05-06 14:04 36.90758 10.24185 2231 ft 218 kts 15°
2026-05-06 14:04 36.92352 10.24584 2617 ft 247 kts 14°
2026-05-06 14:04 36.94098 10.25004 3318 ft 263 kts 12°
2026-05-06 14:04 36.95971 10.24953 4078 ft 280 kts 342°
2026-05-06 14:05 36.97550 10.23506 4891 ft 289 kts 302°
2026-05-06 14:05 36.98123 10.21146 5737 ft 287 kts 264°
2026-05-06 14:05 36.97484 10.18875 6805 ft 271 kts 228°
2026-05-06 14:05 36.96089 10.17481 8180 ft 249 kts 202°
2026-05-06 14:06 36.94500 10.16865 9622 ft 229 kts 197°
2026-05-06 14:06 36.92963 10.16565 10766 ft 224 kts 181°
2026-05-06 14:06 36.91443 10.17039 11689 ft 232 kts 160°
2026-05-06 14:06 36.90113 10.18213 12542 ft 239 kts 151°
2026-05-06 14:07 36.88806 10.19499 13401 ft 239 kts 152°
2026-05-06 14:07 36.87489 10.20793 14152 ft 242 kts 152°
2026-05-06 14:07 36.86150 10.22099 14778 ft 247 kts 152°
2026-05-06 14:07 36.84723 10.23284 15405 ft 245 kts 164°
2026-05-06 14:08 36.83092 10.24099 15654 ft 264 kts 168°
2026-05-06 14:08 36.81293 10.24932 15854 ft 287 kts 168°
2026-05-06 14:08 36.79343 10.25834 16012 ft 310 kts 167°
2026-05-06 14:08 36.77244 10.26813 16130 ft 333 kts 166°
2026-05-06 14:09 36.75028 10.27857 16493 ft 346 kts 166°
2026-05-06 14:09 36.72755 10.28943 17078 ft 352 kts 166°
2026-05-06 14:09 36.70451 10.30049 17695 ft 357 kts 166°
2026-05-06 14:09 36.68133 10.31160 18303 ft 362 kts 166°
2026-05-06 14:10 36.65764 10.32292 18787 ft 367 kts 166°
2026-05-06 14:10 36.63365 10.33433 19329 ft 371 kts 166°
2026-05-06 14:10 36.60965 10.34566 19856 ft 375 kts 166°
2026-05-06 14:10 36.58508 10.35722 20325 ft 380 kts 165°
2026-05-06 14:11 36.56033 10.36889 20855 ft 383 kts 165°
2026-05-06 14:11 36.53527 10.38072 21365 ft 387 kts 165°
2026-05-06 14:11 36.50998 10.39269 21900 ft 391 kts 164°
2026-05-06 14:11 36.48445 10.40476 22385 ft 395 kts 164°
2026-05-06 14:12 36.45864 10.41694 22799 ft 399 kts 164°
2026-05-06 14:12 36.43266 10.42918 22877 ft 400 kts 164°
2026-05-06 14:12 36.40662 10.44147 22885 ft 400 kts 163°
2026-05-06 14:12 36.38066 10.45372 22884 ft 400 kts 163°
2026-05-06 14:13 36.35468 10.46608 22885 ft 400 kts 163°
2026-05-06 14:13 36.32869 10.47855 22883 ft 400 kts 163°
2026-05-06 14:13 36.30274 10.49108 22885 ft 400 kts 163°
2026-05-06 14:13 36.27678 10.50365 22878 ft 400 kts 163°
2026-05-06 14:14 36.25073 10.51616 22889 ft 401 kts 163°
2026-05-06 14:14 36.22468 10.52853 22887 ft 401 kts 163°
2026-05-06 14:14 36.19860 10.54081 22888 ft 401 kts 164°
2026-05-06 14:14 36.17257 10.55302 22887 ft 401 kts 164°
2026-05-06 14:15 36.14652 10.56524 22882 ft 400 kts 164°
2026-05-06 14:15 36.12041 10.57747 22869 ft 400 kts 164°
2026-05-06 14:15 36.09435 10.58968 22870 ft 400 kts 164°
2026-05-06 14:15 36.06835 10.60186 22868 ft 400 kts 163°
2026-05-06 14:16 36.04232 10.61409 22872 ft 400 kts 164°
2026-05-06 14:16 36.01631 10.62630 22856 ft 400 kts 164°
2026-05-06 14:16 35.99024 10.63853 22854 ft 401 kts 164°
2026-05-06 14:16 35.96413 10.65076 22851 ft 401 kts 164°
2026-05-06 14:17 35.93799 10.66295 22848 ft 402 kts 164°
2026-05-06 14:17 35.91181 10.67512 22846 ft 402 kts 164°
2026-05-06 14:17 35.88564 10.68731 22845 ft 403 kts 164°
2026-05-06 14:17 35.85942 10.69951 22836 ft 403 kts 164°
2026-05-06 14:18 35.83313 10.71173 22846 ft 403 kts 164°
2026-05-06 14:18 35.80695 10.72392 22850 ft 403 kts 164°
2026-05-06 14:18 35.78068 10.73605 22841 ft 402 kts 166°
2026-05-06 14:18 35.75370 10.74433 22831 ft 396 kts 177°
2026-05-06 14:19 35.72676 10.74655 22837 ft 391 kts 186°
2026-05-06 14:19 35.69961 10.74494 22838 ft 391 kts 188°
2026-05-06 14:19 35.67234 10.74329 22839 ft 392 kts 187°
2026-05-06 14:19 35.64507 10.74173 22838 ft 392 kts 187°
2026-05-06 14:20 35.61779 10.74021 22837 ft 393 kts 187°
2026-05-06 14:20 35.59048 10.73869 22836 ft 393 kts 187°
2026-05-06 14:20 35.56314 10.73719 22833 ft 393 kts 187°
2026-05-06 14:20 35.53582 10.73570 22832 ft 393 kts 187°
2026-05-06 14:21 35.50841 10.73419 22826 ft 393 kts 187°
2026-05-06 14:21 35.49026 10.73319 22824 ft 393 kts 187°
2026-05-06 14:21 35.45405 10.73112 22816 ft 393 kts 187°
2026-05-06 14:21 35.42671 10.72950 22813 ft 393 kts 188°
2026-05-06 14:22 35.39931 10.72788 22806 ft 393 kts 187°
2026-05-06 14:22 35.37196 10.72637 22809 ft 393 kts 187°
2026-05-06 14:22 35.34460 10.72492 22810 ft 393 kts 187°
2026-05-06 14:22 35.32610 10.72395 22801 ft 393 kts 187°
2026-05-06 14:23 35.29905 10.72254 22809 ft 393 kts 187°
2026-05-06 14:23 35.27163 10.72110 22787 ft 393 kts 188°
2026-05-06 14:23 35.24428 10.71965 22793 ft 393 kts 188°
2026-05-06 14:23 35.21685 10.71818 22801 ft 394 kts 188°
2026-05-06 14:24 35.18950 10.71671 22801 ft 394 kts 188°
2026-05-06 14:24 35.16217 10.71523 22799 ft 394 kts 188°
2026-05-06 14:24 35.13474 10.71374 22800 ft 394 kts 188°
2026-05-06 14:24 35.10737 10.71226 22801 ft 394 kts 188°
2026-05-06 14:25 35.08008 10.71078 22790 ft 394 kts 188°
2026-05-06 14:25 35.05270 10.70934 22780 ft 394 kts 188°
2026-05-06 14:25 35.02532 10.70793 22774 ft 394 kts 189°
2026-05-06 14:25 34.99794 10.70649 22779 ft 394 kts 189°
2026-05-06 14:26 34.97060 10.70501 22773 ft 394 kts 190°
2026-05-06 14:26 34.94320 10.70345 22466 ft 394 kts 190°
2026-05-06 14:26 34.91561 10.70171 21661 ft 395 kts 189°
2026-05-06 14:26 34.88844 10.69997 21199 ft 388 kts 189°
2026-05-06 14:27 34.86171 10.69828 20716 ft 382 kts 189°
2026-05-06 14:27 34.83570 10.69663 20242 ft 376 kts 189°
2026-05-06 14:27 34.80978 10.69496 19755 ft 370 kts 189°
2026-05-06 14:27 34.78420 10.69332 19278 ft 365 kts 188°
2026-05-06 14:28 34.75893 10.69173 18795 ft 361 kts 188°
2026-05-06 14:28 34.73402 10.69016 18310 ft 357 kts 188°
2026-05-06 14:28 34.70930 10.68859 17769 ft 354 kts 188°
2026-05-06 14:28 34.68481 10.68694 17259 ft 350 kts 188°
2026-05-06 14:29 34.66064 10.68526 16768 ft 346 kts 188°
2026-05-06 14:29 34.63674 10.68360 16288 ft 342 kts 187°
2026-05-06 14:29 34.61308 10.68195 15811 ft 339 kts 187°
2026-05-06 14:29 34.58965 10.68032 15341 ft 336 kts 187°
2026-05-06 14:30 34.56637 10.67872 14870 ft 333 kts 187°
2026-05-06 14:30 34.54324 10.67714 14403 ft 331 kts 187°
2026-05-06 14:30 34.52041 10.67557 13928 ft 328 kts 187°
2026-05-06 14:30 34.49800 10.67401 13444 ft 326 kts 187°
2026-05-06 14:31 34.47550 10.67244 12975 ft 322 kts 186°
2026-05-06 14:31 34.45321 10.67089 12501 ft 318 kts 186°
2026-05-06 14:31 34.43123 10.66939 12026 ft 315 kts 186°
2026-05-06 14:31 34.40952 10.66793 11562 ft 312 kts 185°
2026-05-06 14:32 34.38790 10.66646 11110 ft 309 kts 185°
2026-05-06 14:32 34.36650 10.66500 10627 ft 307 kts 185°
2026-05-06 14:32 34.34524 10.66358 10197 ft 304 kts 185°
2026-05-06 14:32 34.32457 10.66222 10071 ft 291 kts 184°
2026-05-06 14:33 34.30470 10.66092 9956 ft 279 kts 184°
2026-05-06 14:33 34.28565 10.65966 9791 ft 270 kts 184°
2026-05-06 14:33 34.26709 10.65840 9658 ft 266 kts 186°
2026-05-06 14:33 34.24833 10.65708 9231 ft 272 kts 185°
2026-05-06 14:34 34.22939 10.65574 8813 ft 272 kts 185°
2026-05-06 14:34 34.21037 10.65443 8351 ft 273 kts 185°
2026-05-06 14:34 34.19158 10.65317 7984 ft 270 kts 184°
2026-05-06 14:34 34.17293 10.65191 7519 ft 267 kts 184°
2026-05-06 14:35 34.15438 10.65066 6830 ft 266 kts 184°
2026-05-06 14:35 34.13632 10.64941 6248 ft 262 kts 184°
2026-05-06 14:35 34.11822 10.64817 5756 ft 259 kts 183°
2026-05-06 14:35 34.10024 10.64694 5368 ft 258 kts 183°
2026-05-06 14:36 34.08232 10.64574 4952 ft 257 kts 182°
2026-05-06 14:36 34.06443 10.64454 4485 ft 258 kts 182°
2026-05-06 14:36 34.04649 10.64333 3996 ft 258 kts 181°
2026-05-06 14:36 34.02854 10.64214 3565 ft 257 kts 181°
2026-05-06 14:37 34.01064 10.64094 3158 ft 255 kts 181°
2026-05-06 14:37 33.99316 10.63976 2969 ft 245 kts 181°
2026-05-06 14:37 33.97666 10.63861 2927 ft 230 kts 181°
2026-05-06 14:37 33.96123 10.63755 2926 ft 214 kts 181°
2026-05-06 14:38 33.94709 10.63658 2923 ft 197 kts 181°
2026-05-06 14:38 33.93380 10.63566 2925 ft 183 kts 180°
2026-05-06 14:38 33.92165 10.63483 2937 ft 167 kts 180°
2026-05-06 14:38 33.91094 10.63407 2929 ft 143 kts 179°
2026-05-06 14:39 33.90127 10.63342 2928 ft 136 kts 180°
2026-05-06 14:39 33.89194 10.63283 2928 ft 133 kts 178°
2026-05-06 14:39 33.88310 10.63513 2953 ft 131 kts 155°
2026-05-06 14:39 33.87606 10.64208 2929 ft 134 kts 131°
2026-05-06 14:40 33.87249 10.65248 2923 ft 138 kts 105°
2026-05-06 14:40 33.87287 10.66416 2908 ft 138 kts 96°
2026-05-06 14:40 33.87305 10.67566 2783 ft 136 kts 97°
2026-05-06 14:40 33.87352 10.68698 2591 ft 135 kts 95°
2026-05-06 14:41 33.87425 10.69861 2087 ft 144 kts 94°
2026-05-06 14:41 33.87521 10.71072 1585 ft 146 kts 92°
2026-05-06 14:41 33.87595 10.72285 1041 ft 145 kts 97°
2026-05-06 14:41 33.87526 10.73464 745 ft 136 kts 96°
2026-05-06 14:42 33.87472 10.74586 417 ft 133 kts 90°
2026-05-06 14:42 33.87499 10.75687 123 ft 132 kts 87°
2026-05-06 14:42 33.87513 10.76737 21 ft 115 kts 85°
2026-05-06 14:42 33.87541 10.77489 22 ft 64 kts 88°
2026-05-06 14:43 33.87553 10.77842 23 ft 32 kts 90°
2026-05-06 14:43 33.87554 10.78122 25 ft 35 kts 88°
2026-05-06 14:43 33.87563 10.78419 23 ft 34 kts 88°
2026-05-06 14:43 33.87502 10.78595 29 ft 21 kts 169°
2026-05-06 14:44 33.87478 10.78598 25 ft 0 kts 178°
2026-05-06 14:45 33.87473 10.78598 25 ft 4 kts 178°
2026-05-06 14:45 33.87410 10.78566 27 ft 15 kts 230°
2026-05-06 14:45 33.87395 10.78451 25 ft 14 kts 267°
2026-05-06 14:45 33.87392 10.78339 25 ft 13 kts 269°
2026-05-06 14:46 33.87396 10.78232 24 ft 12 kts 281°
2026-05-06 14:46 33.87398 10.78130 24 ft 12 kts 268°
2026-05-06 14:46 33.87395 10.78037 23 ft 8 kts 263°
2026-05-06 14:46 33.87354 10.78017 23 ft 6 kts 176°
2026-05-06 14:47 33.87337 10.78017 23 ft 0 kts 179°